,,PA_Meas_PMT16A,,PR_Meas_QMR101_102,,RH_Meas_QMH101,,SR_Meas_QMS101,,TA_Meas_QMH101,,GenWind,,GenWind,
time,status,PA,status,PR,status,RH,status,SR,status,TA,status,DirAvg,status,SpdAvg,
2012-12-08, 06:45:04,VALID,920.209,VALID,0,VALID,97.1147,VALID,98.3087,VALID,19.8003,VALID,152,VALID,0,
2012-12-08, 06:46:04,INVALID,914.564,VALID,0,VALID,97.1071,VALID,98.3087,VALID,19.8408,VALID,140,VALID,0,
2012-12-08, 06:47:04,INVALID,917.664,VALID,0,VALID,97.0842,VALID,100.243,VALID,19.8603,VALID,153,VALID,0,
2012-12-08, 06:48:04,VALID,918.515,VALID,0,VALID,97.0156,VALID,107.011,VALID,19.8798,VALID,150,VALID,0,
2012-12-08, 06:49:04,VALID,919.087,VALID,0,VALID,96.9622,VALID,106.797,VALID,19.9188,VALID,167,VALID,0,
2012-12-08, 06:50:04,VALID,920.945,VALID,0,VALID,96.9012,VALID,106.259,VALID,19.9383,VALID,143,VALID,0,
2012-12-08, 06:51:04,INVALID,917.364,VALID,0,VALID,96.8174,VALID,109.16,VALID,19.9578,VALID,147,VALID,0,
2012-12-08, 06:52:04,VALID,916.631,VALID,0,VALID,96.7564,VALID,86.4901,VALID,19.9953,VALID,158,VALID,0,
2012-12-08, 06:53:04,INVALID,919.974,VALID,0,VALID,96.7183,VALID,77.7874,VALID,19.9953,VALID,142,VALID,0,
2012-12-08, 06:54:04,VALID,919.968,VALID,0,VALID,96.6268,VALID,73.5972,VALID,20.0358,VALID,126,VALID,0,
2012-12-08, 06:55:04,VALID,918.987,VALID,0,VALID,96.5353,VALID,74.4567,VALID,19.9953,VALID,124,VALID,0,
2012-12-08, 06:56:04,VALID,920.93,VALID,0,VALID,96.3981,VALID,75.2088,VALID,20.0163,VALID,139,VALID,0,
2012-12-08, 06:57:04,VALID,920.503,VALID,0,VALID,96.2456,VALID,74.9939,VALID,19.9758,VALID,119,VALID,0,
2012-12-08, 06:58:04,INVALID,918.433,VALID,0,VALID,96.1923,VALID,73.4897,VALID,20.0163,VALID,139,VALID,0,
2012-12-08, 06:59:04,VALID,916.622,VALID,0,VALID,96.1541,VALID,73.3823,VALID,19.9563,VALID,129,VALID,0,
2012-12-08, 07:00:04,VALID,917.592,VALID,0,VALID,96.0627,VALID,72.9525,VALID,19.9773,VALID,140,VALID,0,
2012-12-08, 07:01:04,VALID,917.286,VALID,0,VALID,95.9636,VALID,74.5642,VALID,19.9563,VALID,130,VALID,0,
2012-12-08, 07:02:04,VALID,917.495,VALID,0,VALID,95.9178,VALID,77.3576,VALID,19.9953,VALID,123,VALID,0,
2012-12-08, 07:03:04,VALID,917.138,VALID,0,VALID,95.8035,VALID,80.6883,VALID,19.9758,VALID,128,VALID,0,
2012-12-08, 07:04:04,VALID,917.628,VALID,0,VALID,95.7272,VALID,72.8451,VALID,19.9953,VALID,126,VALID,0,
2012-12-08, 07:05:04,VALID,917.927,VALID,0,VALID,95.5595,VALID,67.0433,VALID,20.0148,VALID,102,VALID,0,
2012-12-08, 07:06:04,VALID,918.356,VALID,0,VALID,95.4071,VALID,64.4647,VALID,20.0343,VALID,120,VALID,0,
2012-12-08, 07:07:04,VALID,917.802,VALID,0,VALID,95.3308,VALID,63.6052,VALID,20.0538,VALID,135,VALID,0,
2012-12-08, 07:08:04,VALID,917.693,VALID,0,VALID,95.2393,VALID,63.7126,VALID,20.0733,VALID,114,VALID,0,
2012-12-08, 07:09:04,VALID,918.401,VALID,0,VALID,95.1707,VALID,63.6052,VALID,20.1123,VALID,140,VALID,0,
2012-12-08, 07:10:04,VALID,917.992,VALID,0,VALID,95.003,VALID,64.1424,VALID,20.1139,VALID,140,VALID,0,
2012-12-08, 07:11:04,VALID,917.684,VALID,0,VALID,94.9878,VALID,64.5721,VALID,20.1318,VALID,131,VALID,0,
2012-12-08, 07:12:04,VALID,917.716,VALID,0,VALID,94.82,VALID,63.6052,VALID,20.1318,VALID,157,VALID,0,
2012-12-08, 07:13:04,VALID,917.676,VALID,0,VALID,94.7133,VALID,59.8447,VALID,20.1513,VALID,184,VALID,0,
2012-12-08, 07:14:04,VALID,918.413,VALID,0,VALID,94.6752,VALID,57.2661,VALID,20.1513,VALID,137,VALID,0,
2012-12-08, 07:15:04,VALID,918.712,VALID,0,VALID,94.5913,VALID,56.7289,VALID,20.1708,VALID,167,VALID,0,
2012-12-08, 07:16:04,VALID,917.911,VALID,0,VALID,94.5685,VALID,57.1587,VALID,20.1919,VALID,152,VALID,0,
2012-12-08, 07:17:04,VALID,917.852,VALID,0,VALID,94.6218,VALID,58.2331,VALID,20.1513,VALID,122,VALID,0,
2012-12-08, 07:18:04,VALID,917.772,VALID,0,VALID,94.6142,VALID,59.415,VALID,20.2098,VALID,158,VALID,0,
2012-12-08, 07:19:04,VALID,917.705,VALID,0,VALID,94.66,VALID,61.134,VALID,20.2293,VALID,152,VALID,0,
2012-12-08, 07:20:04,VALID,918.035,VALID,0,VALID,94.6295,VALID,62.8531,VALID,20.1708,VALID,161,VALID,0,
2012-12-08, 07:21:04,VALID,917.915,VALID,0,VALID,94.6905,VALID,63.1754,VALID,20.1903,VALID,163,VALID,0,
2012-12-08, 07:22:04,VALID,917.755,VALID,0,VALID,94.7133,VALID,62.3159,VALID,20.1903,VALID,148,VALID,0,
2012-12-08, 07:23:04,VALID,917.791,VALID,0,VALID,94.6295,VALID,63.3903,VALID,20.1903,VALID,146,VALID,0,
2012-12-08, 07:24:04,VALID,918.05,VALID,0,VALID,94.5913,VALID,66.0763,VALID,20.2309,VALID,138,VALID,0,
2012-12-08, 07:25:04,VALID,917.798,VALID,0,VALID,94.477,VALID,70.4814,VALID,20.2293,VALID,171,VALID,0,
2012-12-08, 07:26:04,VALID,917.824,VALID,0,VALID,94.233,VALID,75.8535,VALID,20.2489,VALID,173,VALID,0,
2012-12-08, 07:27:04,VALID,917.832,VALID,0,VALID,94.0958,VALID,83.1595,VALID,20.2684,VALID,154,VALID,0,
2012-12-08, 07:28:04,VALID,917.933,VALID,0,VALID,93.9434,VALID,91.2175,VALID,20.3074,VALID,160,VALID,0,
2012-12-08, 07:29:04,VALID,917.956,VALID,0,VALID,93.7604,VALID,96.5896,VALID,20.3269,VALID,165,VALID,0,
2012-12-08, 07:30:04,VALID,917.766,VALID,0,VALID,93.7147,VALID,99.1682,VALID,20.3674,VALID,173,VALID,0,
2012-12-08, 07:31:04,VALID,917.823,VALID,0,VALID,93.6155,VALID,101.21,VALID,20.3869,VALID,149,VALID,0,
2012-12-08, 07:32:04,VALID,917.874,VALID,0,VALID,93.6155,VALID,104.325,VALID,20.4064,VALID,133,VALID,0,
2012-12-08, 07:33:04,VALID,917.785,VALID,0,VALID,93.5927,VALID,106.367,VALID,20.4845,VALID,154,VALID,0,
2012-12-08, 07:34:04,VALID,917.958,VALID,0,VALID,93.3792,VALID,108.516,VALID,20.4634,VALID,137,VALID,0,
2012-12-08, 07:35:04,VALID,917.673,VALID,0,VALID,93.3564,VALID,110.235,VALID,20.5024,VALID,138,VALID,0,
2012-12-08, 07:36:04,VALID,917.9,VALID,0,VALID,93.2877,VALID,112.169,VALID,20.5414,VALID,151,VALID,0,
2012-12-08, 07:37:04,VALID,917.879,VALID,0,VALID,93.0743,VALID,114.21,VALID,20.5609,VALID,125,VALID,0,
2012-12-08, 07:38:04,VALID,917.862,VALID,0,VALID,92.7465,VALID,116.574,VALID,20.5804,VALID,143,VALID,0,
2012-12-08, 07:39:04,VALID,917.691,VALID,0,VALID,92.4568,VALID,119.045,VALID,20.5999,VALID,125,VALID,0,
2012-12-08, 07:40:04,VALID,917.797,VALID,0,VALID,92.1214,VALID,121.516,VALID,20.5999,VALID,129,VALID,0,
2012-12-08, 07:41:04,VALID,917.799,VALID,0,VALID,92.1366,VALID,125.062,VALID,20.639,VALID,116,VALID,0,
2012-12-08, 07:42:04,VALID,918.278,VALID,0,VALID,92.2662,VALID,128.822,VALID,20.639,VALID,101,VALID,0,
2012-12-08, 07:43:04,VALID,917.747,VALID,0,VALID,92.3882,VALID,133.012,VALID,20.6194,VALID,117,VALID,0,
2012-12-08, 07:44:04,VALID,918.003,VALID,0,VALID,92.3424,VALID,136.773,VALID,20.6585,VALID,110,VALID,0,
2012-12-08, 07:45:04,VALID,918.382,VALID,0,VALID,92.2814,VALID,140.318,VALID,20.699,VALID,127,VALID,0,
2012-12-08, 07:46:04,VALID,917.997,VALID,0,VALID,92.3196,VALID,143.649,VALID,20.7185,VALID,162,VALID,0,
2012-12-08, 07:47:04,VALID,917.955,VALID,0,VALID,92.2205,VALID,146.227,VALID,20.7966,VALID,123,VALID,0,
2012-12-08, 07:48:04,VALID,918.083,VALID,0,VALID,92.1747,VALID,148.376,VALID,20.7771,VALID,142,VALID,0,
2012-12-08, 07:49:04,VALID,918.087,VALID,0,VALID,92.2814,VALID,150.31,VALID,20.8372,VALID,183,VALID,0,
2012-12-08, 07:50:04,VALID,918.387,VALID,0,VALID,91.8622,VALID,152.459,VALID,20.8356,VALID,144,VALID,0,
2012-12-08, 07:51:04,VALID,918.009,VALID,0,VALID,91.2675,VALID,154.071,VALID,20.8567,VALID,130,VALID,0,
2012-12-08, 07:52:04,VALID,917.822,VALID,0,VALID,91.3895,VALID,155.79,VALID,20.8551,VALID,138,VALID,0,
2012-12-08, 07:53:04,VALID,918.224,VALID,0,VALID,91.4734,VALID,157.079,VALID,20.8746,VALID,119,VALID,0,
2012-12-08, 07:54:04,VALID,918.156,VALID,0,VALID,91.481,VALID,157.938,VALID,20.9136,VALID,100,VALID,0,
2012-12-08, 07:55:04,VALID,918.096,VALID,0,VALID,91.4352,VALID,159.55,VALID,20.9722,VALID,117,VALID,0,
2012-12-08, 07:56:04,VALID,918.086,VALID,0,VALID,91.2599,VALID,160.732,VALID,21.0307,VALID,127,VALID,0,
2012-12-08, 07:57:04,VALID,918.058,VALID,0,VALID,91.0922,VALID,161.699,VALID,21.0892,VALID,147,VALID,0,
2012-12-08, 07:58:04,VALID,917.193,VALID,0,VALID,90.6653,VALID,162.666,VALID,21.1282,VALID,166,VALID,0,
2012-12-08, 07:59:04,VALID,918.114,VALID,0,VALID,90.5357,VALID,164.385,VALID,21.1673,VALID,130,VALID,0,
2012-12-08, 08:00:04,VALID,918.131,VALID,0,VALID,90.4061,VALID,166.104,VALID,21.1868,VALID,138,VALID,0,
2012-12-08, 08:01:04,VALID,918.161,VALID,0,VALID,89.3693,VALID,167.823,VALID,21.268,VALID,125,VALID,0,
2012-12-08, 08:02:04,VALID,918.729,VALID,0,VALID,90.2308,VALID,169.757,VALID,21.2843,VALID,94,VALID,0,
2012-12-08, 08:03:04,VALID,918.009,VALID,0,VALID,90.955,VALID,172.013,VALID,21.3429,VALID,88,VALID,0,
2012-12-08, 08:04:04,VALID,917.793,VALID,0,VALID,89.3007,VALID,174.055,VALID,21.3429,VALID,84,VALID,0,
2012-12-08, 08:05:04,VALID,918.174,VALID,0,VALID,89.0034,VALID,176.096,VALID,21.3429,VALID,116,VALID,0,
2012-12-08, 08:06:04,VALID,918.449,VALID,0,VALID,89.8496,VALID,177.6,VALID,21.3624,VALID,118,VALID,0,
2012-12-08, 08:07:04,VALID,918.026,VALID,0,VALID,89.781,VALID,178.782,VALID,21.3429,VALID,83,VALID,0,
2012-12-08, 08:08:04,VALID,918.525,VALID,0,VALID,90.5433,VALID,179.749,VALID,21.3803,VALID,92,VALID,0,
2012-12-08, 08:09:04,VALID,918.137,VALID,0,VALID,90.8483,VALID,180.931,VALID,21.4014,VALID,99,VALID,0,
2012-12-08, 08:10:04,VALID,918.546,VALID,0,VALID,90.772,VALID,182.005,VALID,21.3819,VALID,96,VALID,0,
2012-12-08, 08:11:04,VALID,918.097,VALID,0,VALID,90.2079,VALID,183.08,VALID,21.3819,VALID,111,VALID,0,
2012-12-08, 08:12:04,VALID,918.166,VALID,0,VALID,89.8191,VALID,184.154,VALID,21.3819,VALID,109,VALID,0,
2012-12-08, 08:13:04,VALID,918.152,VALID,0,VALID,90.5204,VALID,185.121,VALID,21.4404,VALID,109,VALID,0,
2012-12-08, 08:14:04,VALID,917.654,VALID,0,VALID,90.833,VALID,185.873,VALID,21.538,VALID,72,VALID,0,
2012-12-08, 08:15:04,VALID,918.032,VALID,0,VALID,91.1608,VALID,187.055,VALID,21.6339,VALID,72,VALID,0,
2012-12-08, 08:16:04,VALID,919.332,VALID,0,VALID,90.0935,VALID,188.452,VALID,21.6746,VALID,88,VALID,0,
2012-12-08, 08:17:04,VALID,918.312,VALID,0,VALID,88.9424,VALID,189.849,VALID,21.712,VALID,118,VALID,0,
2012-12-08, 08:18:04,VALID,918.217,VALID,0,VALID,89.2321,VALID,191.03,VALID,21.7526,VALID,113,VALID,0,
2012-12-08, 08:19:04,VALID,918.19,VALID,0,VALID,88.4926,VALID,192.212,VALID,21.7331,VALID,127,VALID,0,
2012-12-08, 08:20:04,VALID,918.185,VALID,0,VALID,88.2639,VALID,193.287,VALID,21.712,VALID,127,VALID,0,
2012-12-08, 08:21:04,VALID,918.242,VALID,0,VALID,88.3859,VALID,194.361,VALID,21.7315,VALID,143,VALID,0,
2012-12-08, 08:22:04,VALID,917.908,VALID,0,VALID,88.5841,VALID,195.758,VALID,21.712,VALID,121,VALID,0,
2012-12-08, 08:23:04,VALID,918.07,VALID,0,VALID,88.9424,VALID,197.369,VALID,21.7705,VALID,116,VALID,0,
2012-12-08, 08:24:04,VALID,918.064,VALID,0,VALID,88.5079,VALID,199.303,VALID,21.8095,VALID,140,VALID,0,
2012-12-08, 08:25:04,VALID,918.498,VALID,0,VALID,86.2285,VALID,201.237,VALID,21.829,VALID,147,VALID,0,
2012-12-08, 08:26:04,VALID,918.291,VALID,0,VALID,86.2742,VALID,203.171,VALID,21.8876,VALID,145,VALID,0,
2012-12-08, 08:27:04,VALID,918.28,VALID,0,VALID,87.3186,VALID,204.998,VALID,22.0063,VALID,146,VALID,0,
2012-12-08, 08:28:04,VALID,918.188,VALID,0,VALID,87.1128,VALID,206.287,VALID,22.0047,VALID,170,VALID,0,
2012-12-08, 08:29:04,VALID,918.314,VALID,0,VALID,88.5688,VALID,207.147,VALID,22.0047,VALID,167,VALID,0,
2012-12-08, 08:30:04,VALID,918.05,VALID,0,VALID,88.8738,VALID,207.684,VALID,21.9461,VALID,170,VALID,0,
2012-12-08, 08:31:04,VALID,918.434,VALID,0,VALID,88.2029,VALID,208.221,VALID,21.8876,VALID,163,VALID,0,
2012-12-08, 08:32:04,VALID,918.434,VALID,0,VALID,89.5599,VALID,208.328,VALID,21.8876,VALID,135,VALID,0,
2012-12-08, 08:33:04,VALID,918.297,VALID,0,VALID,89.2931,VALID,207.899,VALID,21.8485,VALID,158,VALID,0,
2012-12-08, 08:34:04,VALID,918.325,VALID,0,VALID,89.3541,VALID,207.469,VALID,21.79,VALID,173,VALID,0,
2012-12-08, 08:35:04,VALID,918.308,VALID,0,VALID,89.3159,VALID,207.039,VALID,21.751,VALID,168,VALID,0,
2012-12-08, 08:36:04,VALID,918.297,VALID,0,VALID,89.8877,VALID,206.394,VALID,21.751,VALID,152,VALID,0,
2012-12-08, 08:37:04,VALID,917.944,VALID,0,VALID,90.1088,VALID,205.857,VALID,21.7705,VALID,176,VALID,0,
2012-12-08, 08:38:04,VALID,918.399,VALID,0,VALID,89.9258,VALID,205.642,VALID,21.79,VALID,155,VALID,0,
2012-12-08, 08:39:04,VALID,918.337,VALID,0,VALID,89.3769,VALID,205.32,VALID,21.8095,VALID,183,VALID,0,
2012-12-08, 08:40:04,VALID,918.229,VALID,0,VALID,89.659,VALID,205.213,VALID,21.829,VALID,177,VALID,0,
2012-12-08, 08:41:04,VALID,918.138,VALID,0,VALID,89.5446,VALID,205.642,VALID,21.8485,VALID,180,VALID,0,
2012-12-08, 08:42:04,VALID,918.369,VALID,0,VALID,89.2397,VALID,206.394,VALID,21.8876,VALID,177,VALID,0,
2012-12-08, 08:43:04,VALID,917.743,VALID,0,VALID,89.598,VALID,207.684,VALID,21.9656,VALID,181,VALID,0,
2012-12-08, 08:44:04,VALID,918.217,VALID,0,VALID,89.4227,VALID,208.973,VALID,22.0047,VALID,172,VALID,0,
2012-12-08, 08:45:04,VALID,918.26,VALID,0,VALID,88.7823,VALID,210.262,VALID,22.0454,VALID,155,VALID,0,
2012-12-08, 08:46:04,VALID,918.158,VALID,0,VALID,87.9437,VALID,211.981,VALID,22.0632,VALID,133,VALID,0,
2012-12-08, 08:47:04,VALID,918.508,VALID,0,VALID,87.6159,VALID,213.486,VALID,22.042,VALID,131,VALID,0,
2012-12-08, 08:48:04,VALID,918.236,VALID,0,VALID,87.6922,VALID,214.775,VALID,22.0632,VALID,162,VALID,0,
2012-12-08, 08:49:04,VALID,918.148,VALID,0,VALID,87.4406,VALID,216.386,VALID,22.0225,VALID,137,VALID,0,
2012-12-08, 08:50:04,VALID,918.26,VALID,0,VALID,87.8294,VALID,217.676,VALID,22.0827,VALID,179,VALID,0,
2012-12-08, 08:51:04,VALID,918.223,VALID,0,VALID,87.9056,VALID,219.395,VALID,22.1217,VALID,179,VALID,0,
2012-12-08, 08:52:04,VALID,918.294,VALID,0,VALID,87.5549,VALID,221.436,VALID,22.1608,VALID,172,VALID,0,
2012-12-08, 08:53:04,VALID,918.409,VALID,0,VALID,87.6998,VALID,223.907,VALID,22.2388,VALID,174,VALID,0,
2012-12-08, 08:54:04,VALID,918.435,VALID,0,VALID,88.546,VALID,226.164,VALID,22.3364,VALID,174,VALID,0,
2012-12-08, 08:55:04,VALID,918.113,VALID,0,VALID,87.2881,VALID,228.312,VALID,22.4535,VALID,190,VALID,0,
2012-12-08, 08:56:04,VALID,918.22,VALID,0,VALID,86.9146,VALID,231.106,VALID,22.4925,VALID,145,VALID,0,
2012-12-08, 08:57:04,VALID,918.164,VALID,0,VALID,87.9285,VALID,233.577,VALID,22.5121,VALID,143,VALID,0,
2012-12-08, 08:58:04,VALID,918.284,VALID,0,VALID,88.2563,VALID,234.974,VALID,22.6292,VALID,135,VALID,0,
2012-12-08, 08:59:04,VALID,918.236,VALID,0,VALID,86.663,VALID,237.015,VALID,22.5706,VALID,143,VALID,0,
2012-12-08, 09:00:04,VALID,918.269,VALID,0,VALID,86.5715,VALID,238.519,VALID,22.5511,VALID,182,VALID,0,
2012-12-08, 09:01:04,VALID,917.916,VALID,0,VALID,86.9679,VALID,239.701,VALID,22.5121,VALID,182,VALID,0,
2012-12-08, 09:02:04,VALID,918.225,VALID,0,VALID,87.5321,VALID,240.453,VALID,22.5511,VALID,187,VALID,0,
2012-12-08, 09:03:04,VALID,918.291,VALID,0,VALID,87.4711,VALID,241.098,VALID,22.5884,VALID,171,VALID,0,
2012-12-08, 09:04:04,VALID,918.27,VALID,0,VALID,87.1585,VALID,241.42,VALID,22.6274,VALID,185,VALID,0,
2012-12-08, 09:05:04,VALID,917.867,VALID,0,VALID,85.3899,VALID,241.42,VALID,22.6096,VALID,171,VALID,0,
2012-12-08, 09:06:04,VALID,918.511,VALID,0,VALID,86.1827,VALID,241.635,VALID,22.6096,VALID,178,VALID,0,
2012-12-08, 09:07:04,VALID,918.297,VALID,0,VALID,86.3276,VALID,241.528,VALID,22.5706,VALID,131,VALID,0,
2012-12-08, 09:08:04,VALID,918.383,VALID,0,VALID,86.5791,VALID,241.313,VALID,22.5511,VALID,169,VALID,0,
2012-12-08, 09:09:04,VALID,918.3,VALID,0,VALID,86.8002,VALID,240.883,VALID,22.5511,VALID,176,VALID,0,
2012-12-08, 09:10:04,VALID,918.385,VALID,0,VALID,87.1051,VALID,240.131,VALID,22.6292,VALID,175,VALID,0,
2012-12-08, 09:11:04,VALID,918.342,VALID,0,VALID,85.9388,VALID,239.379,VALID,22.6877,VALID,177,VALID,0,
2012-12-08, 09:12:04,VALID,918.308,VALID,0,VALID,85.1841,VALID,238.842,VALID,22.7072,VALID,180,VALID,0,
2012-12-08, 09:13:04,VALID,918.35,VALID,0,VALID,86.7011,VALID,238.412,VALID,22.7267,VALID,138,VALID,0,
2012-12-08, 09:14:04,VALID,918.212,VALID,0,VALID,86.8078,VALID,237.23,VALID,22.725,VALID,173,VALID,0,
2012-12-08, 09:15:04,VALID,918.709,VALID,0,VALID,87.0213,VALID,236.156,VALID,22.8243,VALID,174,VALID,0,
2012-12-08, 09:16:04,VALID,918.408,VALID,0,VALID,85.7482,VALID,235.189,VALID,22.9024,VALID,174,VALID,0,
2012-12-08, 09:17:04,VALID,918.101,VALID,0,VALID,85.4051,VALID,234.759,VALID,22.9805,VALID,174,VALID,0,
2012-12-08, 09:18:04,VALID,918.338,VALID,0,VALID,85.611,VALID,234.651,VALID,23.0586,VALID,174,VALID,0,
2012-12-08, 09:19:04,VALID,917.982,VALID,0,VALID,83.5374,VALID,234.866,VALID,23.0391,VALID,174,VALID,0,
2012-12-08, 09:20:04,VALID,918.702,VALID,0,VALID,84.5361,VALID,235.296,VALID,22.9787,VALID,174,VALID,0,
2012-12-08, 09:21:04,VALID,918.42,VALID,0,VALID,85.6186,VALID,235.726,VALID,22.9415,VALID,132,VALID,0,
2012-12-08, 09:22:04,VALID,918.754,VALID,0,VALID,85.9616,VALID,236.263,VALID,22.8616,VALID,127,VALID,0,
2012-12-08, 09:23:04,VALID,918.218,VALID,0,VALID,87.4711,VALID,236.693,VALID,22.9007,VALID,146,VALID,0,
2012-12-08, 09:24:04,VALID,918.264,VALID,0,VALID,86.7621,VALID,237.338,VALID,22.9202,VALID,168,VALID,0,
2012-12-08, 09:25:04,VALID,918.493,VALID,0,VALID,87.4253,VALID,237.767,VALID,22.9592,VALID,170,VALID,0,
2012-12-08, 09:26:04,VALID,918.4,VALID,0,VALID,86.3199,VALID,237.66,VALID,22.9415,VALID,161,VALID,0,
2012-12-08, 09:27:04,VALID,918.462,VALID,0,VALID,85.5042,VALID,237.123,VALID,22.9415,VALID,170,VALID,0,
2012-12-08, 09:28:04,VALID,918.293,VALID,0,VALID,85.0773,VALID,236.371,VALID,22.9592,VALID,174,VALID,0,
2012-12-08, 09:29:04,VALID,918.44,VALID,0,VALID,85.3823,VALID,235.296,VALID,23.0178,VALID,129,VALID,0,
2012-12-08, 09:30:04,VALID,918.267,VALID,0,VALID,85.3518,VALID,233.255,VALID,23.0586,VALID,173,VALID,0,
2012-12-08, 09:31:04,VALID,918.302,VALID,0,VALID,84.4903,VALID,231.213,VALID,23.0603,VALID,158,VALID,0,
2012-12-08, 09:32:04,VALID,918.583,VALID,0,VALID,85.2222,VALID,229.065,VALID,23,VALID,157,VALID,0,
2012-12-08, 09:33:04,VALID,918.329,VALID,0,VALID,86.48,VALID,227.345,VALID,23,VALID,167,VALID,0,
2012-12-08, 09:34:04,VALID,918.163,VALID,0,VALID,85.9311,VALID,226.164,VALID,23.0586,VALID,173,VALID,0,
2012-12-08, 09:35:04,VALID,918.291,VALID,0,VALID,86.0455,VALID,225.304,VALID,23.1367,VALID,172,VALID,0,
2012-12-08, 09:36:04,VALID,918.239,VALID,0,VALID,85.6186,VALID,225.304,VALID,23.2165,VALID,154,VALID,0,
2012-12-08, 09:37:04,VALID,918.596,VALID,0,VALID,84.7571,VALID,225.841,VALID,23.2733,VALID,153,VALID,0,
2012-12-08, 09:38:04,VALID,917.883,VALID,0,VALID,83.9872,VALID,227.453,VALID,23.2538,VALID,177,VALID,0,
2012-12-08, 09:39:04,VALID,918.273,VALID,0,VALID,83.8804,VALID,230.676,VALID,23.2928,VALID,159,VALID,0,
2012-12-08, 09:40:04,VALID,918.245,VALID,0,VALID,84.78,VALID,235.618,VALID,23.3904,VALID,128,VALID,0,
2012-12-08, 09:41:04,VALID,918.434,VALID,0,VALID,84.8944,VALID,242.817,VALID,23.449,VALID,128,VALID,0,
2012-12-08, 09:42:04,VALID,918.234,VALID,0,VALID,84.6657,VALID,251.735,VALID,23.449,VALID,200,VALID,0,
2012-12-08, 09:43:04,VALID,918.324,VALID,0,VALID,83.2172,VALID,262.586,VALID,23.4295,VALID,208,VALID,0,
2012-12-08, 09:44:04,VALID,918.696,VALID,0,VALID,84.4979,VALID,273.975,VALID,23.449,VALID,170,VALID,0,
2012-12-08, 09:45:04,VALID,918.231,VALID,0,VALID,82.9885,VALID,285.793,VALID,23.5271,VALID,179,VALID,0,
2012-12-08, 09:46:04,VALID,918.484,VALID,0,VALID,83.6212,VALID,297.827,VALID,23.5466,VALID,158,VALID,0,
2012-12-08, 09:47:04,VALID,918.423,VALID,0,VALID,81.38,VALID,310.505,VALID,23.5076,VALID,169,VALID,0,
2012-12-08, 09:48:04,VALID,918.238,VALID,0,VALID,82.3329,VALID,324.043,VALID,23.5076,VALID,168,VALID,0,
2012-12-08, 09:49:04,VALID,918.12,VALID,0,VALID,83.8652,VALID,337.258,VALID,23.5661,VALID,184,VALID,0,
2012-12-08, 09:50:04,VALID,918.248,VALID,0,VALID,82.2948,VALID,350.58,VALID,23.7223,VALID,184,VALID,0,
2012-12-08, 09:51:04,VALID,918.444,VALID,0,VALID,82.9656,VALID,364.548,VALID,23.8004,VALID,156,VALID,0,
2012-12-08, 09:52:04,VALID,918.389,VALID,0,VALID,83.2325,VALID,378.837,VALID,23.8395,VALID,152,VALID,0,
2012-12-08, 09:53:04,VALID,918.294,VALID,0,VALID,82.371,VALID,396.565,VALID,23.8413,VALID,110,VALID,0,
2012-12-08, 09:54:04,VALID,918.28,VALID,0,VALID,82.188,VALID,421.062,VALID,23.9176,VALID,128,VALID,0,
2012-12-08, 09:55:04,VALID,918.217,VALID,0,VALID,82.1728,VALID,470.915,VALID,24.0152,VALID,171,VALID,0,
2012-12-08, 09:56:04,VALID,917.589,VALID,0,VALID,81.3342,VALID,514.321,VALID,24.1324,VALID,173,VALID,0,
2012-12-08, 09:57:04,VALID,918.307,VALID,0,VALID,80.1755,VALID,598.017,VALID,24.269,VALID,142,VALID,0,
2012-12-08, 09:58:04,VALID,918.496,VALID,0,VALID,79.6266,VALID,510.56,VALID,24.3453,VALID,139,VALID,0,
2012-12-08, 09:59:04,VALID,918.454,VALID,0,VALID,79.5351,VALID,447.492,VALID,24.3258,VALID,170,VALID,0,
2012-12-08, 10:00:04,VALID,918.392,VALID,0,VALID,79.032,VALID,442.443,VALID,24.2904,VALID,222,VALID,0,
2012-12-08, 10:01:04,VALID,918.152,VALID,0,VALID,78.9328,VALID,447.278,VALID,24.4039,VALID,223,VALID,0,
2012-12-08, 10:02:04,VALID,918.339,VALID,0,VALID,79.5122,VALID,446.74,VALID,24.601,VALID,172,VALID,0,
2012-12-08, 10:03:04,VALID,918.229,VALID,0,VALID,77.9952,VALID,439.757,VALID,24.5229,VALID,61,VALID,0,
2012-12-08, 10:04:04,VALID,918.594,VALID,0,VALID,77.9952,VALID,433.203,VALID,24.5601,VALID,128,VALID,0,
2012-12-08, 10:05:04,VALID,917.418,VALID,0,VALID,78.5745,VALID,440.186,VALID,24.7358,VALID,205,VALID,0,
2012-12-08, 10:06:04,VALID,918.214,VALID,0,VALID,77.2252,VALID,434.17,VALID,24.8921,VALID,199,VALID,0,
2012-12-08, 10:07:04,VALID,918.304,VALID,0,VALID,77.0804,VALID,458.237,VALID,24.9916,VALID,185,VALID,0,
2012-12-08, 10:08:04,VALID,918.268,VALID,0,VALID,77.675,VALID,450.071,VALID,25.0483,VALID,102,VALID,0,
2012-12-08, 10:09:04,VALID,918.278,VALID,0,VALID,77.7283,VALID,430.946,VALID,25.0679,VALID,116,VALID,0,
2012-12-08, 10:10:04,VALID,918.276,VALID,0,VALID,78.323,VALID,416.764,VALID,24.9488,VALID,135,VALID,0,
2012-12-08, 10:11:04,VALID,918.207,VALID,0,VALID,79.0777,VALID,409.781,VALID,24.9702,VALID,120,VALID,0,
2012-12-08, 10:12:04,VALID,918.12,VALID,0,VALID,77.0041,VALID,405.375,VALID,24.9488,VALID,159,VALID,0,
2012-12-08, 10:13:04,VALID,918.21,VALID,0,VALID,78.1019,VALID,403.656,VALID,24.9897,VALID,103,VALID,0,
2012-12-08, 10:14:04,VALID,918.502,VALID,0,VALID,76.783,VALID,403.979,VALID,24.8335,VALID,135,VALID,0,
2012-12-08, 10:15:04,VALID,918.091,VALID,0,VALID,76.3485,VALID,404.301,VALID,24.814,VALID,160,VALID,0,
2012-12-08, 10:16:04,VALID,918.483,VALID,0,VALID,76.8135,VALID,404.194,VALID,24.894,VALID,180,VALID,0,
2012-12-08, 10:17:04,VALID,918.052,VALID,0,VALID,75.9597,VALID,403.119,VALID,24.9311,VALID,131,VALID,0,
2012-12-08, 10:18:04,VALID,918.249,VALID,0,VALID,77.3853,VALID,399.681,VALID,24.853,VALID,143,VALID,0,
2012-12-08, 10:19:04,VALID,917.973,VALID,0,VALID,77.8351,VALID,397.317,VALID,24.9311,VALID,173,VALID,0,
2012-12-08, 10:20:04,VALID,918.194,VALID,0,VALID,76.5391,VALID,396.35,VALID,25.0093,VALID,178,VALID,0,
2012-12-08, 10:21:04,VALID,918.583,VALID,0,VALID,75.975,VALID,400.003,VALID,25.0464,VALID,89,VALID,0,
2012-12-08, 10:22:04,VALID,918.174,VALID,0,VALID,78.5136,VALID,408.599,VALID,25.0288,VALID,92,VALID,0,
2012-12-08, 10:23:04,VALID,918.103,VALID,0,VALID,77.088,VALID,421.277,VALID,25.0093,VALID,165,VALID,0,
2012-12-08, 10:24:04,VALID,918.357,VALID,0,VALID,77.2404,VALID,432.666,VALID,25.0288,VALID,142,VALID,0,
2012-12-08, 10:25:04,VALID,918.184,VALID,0,VALID,75.975,VALID,442.443,VALID,25.1655,VALID,201,VALID,0,
2012-12-08, 10:26:04,VALID,918.292,VALID,0,VALID,76.7983,VALID,453.939,VALID,25.3413,VALID,185,VALID,0,
2012-12-08, 10:27:04,VALID,918.222,VALID,0,VALID,73.4135,VALID,469.088,VALID,25.3198,VALID,86,VALID,0,
2012-12-08, 10:28:04,VALID,918.57,VALID,0,VALID,74.0996,VALID,504.544,VALID,25.3198,VALID,114,VALID,0,
2012-12-08, 10:29:04,VALID,918.052,VALID,0,VALID,74.1301,VALID,673.656,VALID,25.4565,VALID,126,VALID,0,
2012-12-08, 10:30:04,VALID,918.02,VALID,0,VALID,73.8175,VALID,798.288,VALID,25.5757,VALID,188,VALID,0,
2012-12-08, 10:31:04,VALID,917.984,VALID,0,VALID,74.0157,VALID,772.287,VALID,25.8277,VALID,152,VALID,0,